C/2006 M1 ( LINEAR )

Japanese version
Home page
Total 6,336 html files since Dec. 4, 1995
Updated on April 3, 2008

---------------------------------------------------------------------

* Profile

Discovery Date June 18, 2006
Magnitude 18.4 mag
Discoverer Lincoln Laboratory Near-Earth Asteroid Research project

* Pictures

* Orbital Elements

Epoch 2007 Mar. 1.0 TT = JDT 2454160.5
T 2007 Feb. 13.91841 TT                                 MPC
q   3.5562884            (2000.0)            P               Q
z  +0.0064917      Peri.  122.89213     +0.71589246     +0.27648983
 +/-0.0000037      Node   231.61527     -0.15786352     +0.95856983
e   0.9769135      Incl.   54.87699     +0.68013020     -0.06853656
From 190 observations 2005 May 11-2006 Aug. 4, mean residual 0".50.

* Finding Charts

* Magnitudes Graph

        m1 = 11.2 + 5 log d + 5.0 log r

---------------------------------------------------------------------

The orbital elements are published on M.P.E.C. 2006-P16.
The charts are made with StellaNavigator Ver.2.0 for Windows (AstroArts / ASCII).
The magnitudes graphs are made with Comet for Windows.

---------------------------------------------------------------------

Copyright(C) 1995-2008 Seiichi Yoshida (comet@aerith.net). All rights reserved.